Year,Month,Day,Hour,Minute,Value (Times are PST for temperature in C)
2015,10,20,08,03,9.50
2015,10,20,08,04,9.50
2015,10,20,08,05,9.50
2015,10,20,08,06,9.50
2015,10,20,08,07,9.60
2015,10,20,08,08,9.60
2015,10,20,08,09,9.60
2015,10,20,08,10,9.70
2015,10,20,08,11,9.70
2015,10,20,08,12,9.70
2015,10,20,08,13,9.80
2015,10,20,08,14,9.80
2015,10,20,08,15,9.80
2015,10,20,08,16,9.80
2015,10,20,08,17,9.80
2015,10,20,08,18,9.90
2015,10,20,08,19,9.90
2015,10,20,08,20,9.90
2015,10,20,08,21,9.90
2015,10,20,08,22,9.90
2015,10,20,08,23,9.90
2015,10,20,08,24,9.90
2015,10,20,08,25,10.00
2015,10,20,08,26,10.00
2015,10,20,08,27,10.00
2015,10,20,08,28,10.00
2015,10,20,08,29,10.00
2015,10,20,08,30,10.00
2015,10,20,08,31,10.00
2015,10,20,08,32,10.10
2015,10,20,08,33,10.10
2015,10,20,08,34,10.10
2015,10,20,08,35,10.10
2015,10,20,08,36,10.10
2015,10,20,08,37,10.10
2015,10,20,08,38,10.10
2015,10,20,08,39,10.10
2015,10,20,08,40,10.10
2015,10,20,08,41,10.10
2015,10,20,08,42,10.10
2015,10,20,08,43,10.10
2015,10,20,08,44,10.10
2015,10,20,08,45,10.10
2015,10,20,08,46,10.10
2015,10,20,08,47,10.10
2015,10,20,08,48,10.20
2015,10,20,08,49,10.20
2015,10,20,08,50,10.20
2015,10,20,08,51,10.20
2015,10,20,08,52,10.20
2015,10,20,08,53,10.20
2015,10,20,08,54,10.20
2015,10,20,08,55,10.20
2015,10,20,08,56,10.20
2015,10,20,08,57,10.20
2015,10,20,08,58,10.20
2015,10,20,08,59,10.20
2015,10,20,09,00,10.20
2015,10,20,09,01,10.20
2015,10,20,09,02,10.20
2015,10,20,09,03,10.20
2015,10,20,09,04,10.30
2015,10,20,09,05,10.30
2015,10,20,09,06,10.30
2015,10,20,09,07,10.30
2015,10,20,09,08,10.30
2015,10,20,09,09,10.30
2015,10,20,09,10,10.40
2015,10,20,09,11,10.40
2015,10,20,09,12,10.40
2015,10,20,09,13,10.40
2015,10,20,09,14,10.40
2015,10,20,09,15,10.40
2015,10,20,09,16,10.40
2015,10,20,09,17,10.40
2015,10,20,09,18,10.40
2015,10,20,09,19,10.40
2015,10,20,09,20,10.40
2015,10,20,09,21,10.40
2015,10,20,09,22,10.40
2015,10,20,09,23,10.40
2015,10,20,09,24,10.40
2015,10,20,09,25,10.40
2015,10,20,09,26,10.40
2015,10,20,09,27,10.40
2015,10,20,09,28,10.50
2015,10,20,09,29,10.50
2015,10,20,09,30,10.50
2015,10,20,09,31,10.50
2015,10,20,09,32,10.50
2015,10,20,09,33,10.50
2015,10,20,09,34,10.50
2015,10,20,09,35,10.60
2015,10,20,09,36,10.60
2015,10,20,09,37,10.60
2015,10,20,09,38,10.60
2015,10,20,09,39,10.60
2015,10,20,09,40,10.60
2015,10,20,09,41,10.60
2015,10,20,09,42,10.60
2015,10,20,09,43,10.60
2015,10,20,09,44,10.60
2015,10,20,09,45,10.60
2015,10,20,09,46,10.60
2015,10,20,09,47,10.60
2015,10,20,09,48,10.60
2015,10,20,09,49,10.60
2015,10,20,09,50,10.60
2015,10,20,09,51,10.60
2015,10,20,09,52,10.60
2015,10,20,09,53,10.60
2015,10,20,09,54,10.50
2015,10,20,09,55,10.60
2015,10,20,09,56,10.50
2015,10,20,09,57,10.60
2015,10,20,09,58,10.60
2015,10,20,09,59,10.60
2015,10,20,10,00,10.60
2015,10,20,10,01,10.60
2015,10,20,10,02,10.60
2015,10,20,10,03,10.60
2015,10,20,10,04,10.60
2015,10,20,10,05,10.60
2015,10,20,10,06,10.60
2015,10,20,10,07,10.60
2015,10,20,10,08,10.60
2015,10,20,10,09,10.60
2015,10,20,10,10,10.60
2015,10,20,10,11,10.60
2015,10,20,10,12,10.60
2015,10,20,10,13,10.60
2015,10,20,10,14,10.60
2015,10,20,10,15,10.70
2015,10,20,10,16,10.70
2015,10,20,10,17,10.70
2015,10,20,10,18,10.80
2015,10,20,10,19,10.80
2015,10,20,10,20,10.80
2015,10,20,10,21,10.80
2015,10,20,10,22,10.80
2015,10,20,10,23,10.80
2015,10,20,10,24,10.80
2015,10,20,10,25,10.90
2015,10,20,10,26,10.90
2015,10,20,10,27,10.90
2015,10,20,10,28,10.80
2015,10,20,10,29,10.80
2015,10,20,10,30,10.80
2015,10,20,10,31,10.80
2015,10,20,10,32,10.80
2015,10,20,10,33,10.90
2015,10,20,10,34,11.00
2015,10,20,10,35,11.00
2015,10,20,10,36,11.10
2015,10,20,10,37,11.10
2015,10,20,10,38,11.10
2015,10,20,10,39,11.10
2015,10,20,10,40,11.10
2015,10,20,10,41,11.10
2015,10,20,10,42,11.10
2015,10,20,10,43,11.10
2015,10,20,10,44,11.20
2015,10,20,10,45,11.20
2015,10,20,10,46,11.20
2015,10,20,10,47,11.20
2015,10,20,10,48,11.20
2015,10,20,10,49,11.20
2015,10,20,10,50,11.30
2015,10,20,10,51,11.30
2015,10,20,10,52,11.30
2015,10,20,10,53,11.30
2015,10,20,10,54,11.30
2015,10,20,10,55,11.30
2015,10,20,10,56,11.30
2015,10,20,10,57,11.30
2015,10,20,10,58,11.20
2015,10,20,10,59,11.20
2015,10,20,11,00,11.20
2015,10,20,11,01,11.20
2015,10,20,11,02,11.20
2015,10,20,11,03,11.30
2015,10,20,11,04,11.30
2015,10,20,11,05,11.30
2015,10,20,11,06,11.30
2015,10,20,11,07,11.30
2015,10,20,11,08,11.30
2015,10,20,11,09,11.30
2015,10,20,11,10,11.40
2015,10,20,11,11,11.40
2015,10,20,11,12,11.40
2015,10,20,11,13,11.40
2015,10,20,11,14,11.40
2015,10,20,11,15,11.50
2015,10,20,11,16,11.50
2015,10,20,11,17,11.60
2015,10,20,11,18,11.60
2015,10,20,11,19,11.60
2015,10,20,11,20,11.60
2015,10,20,11,21,11.60
2015,10,20,11,22,11.50
2015,10,20,11,23,11.50
2015,10,20,11,24,11.50
2015,10,20,11,25,11.50
2015,10,20,11,26,11.60
2015,10,20,11,27,11.60
2015,10,20,11,28,11.60
2015,10,20,11,29,11.60
2015,10,20,11,30,11.50
2015,10,20,11,31,11.60
2015,10,20,11,32,11.60
2015,10,20,11,33,11.60
2015,10,20,11,34,11.60
2015,10,20,11,35,11.60
2015,10,20,11,36,11.60
2015,10,20,11,37,11.60
2015,10,20,11,38,11.60
2015,10,20,11,39,11.60
2015,10,20,11,40,11.50
2015,10,20,11,41,11.50
2015,10,20,11,42,11.50
2015,10,20,11,43,11.50
2015,10,20,11,44,11.60
2015,10,20,11,45,11.60
2015,10,20,11,46,11.60
2015,10,20,11,47,11.60
2015,10,20,11,48,11.60
2015,10,20,11,49,11.60
2015,10,20,11,50,11.60
2015,10,20,11,51,11.70
2015,10,20,11,52,11.70
2015,10,20,11,53,11.70
2015,10,20,11,54,11.70
2015,10,20,11,55,11.80
2015,10,20,11,56,11.80
2015,10,20,11,57,11.80
2015,10,20,11,58,11.80
2015,10,20,11,59,11.80
2015,10,20,12,00,11.80
2015,10,20,12,01,11.80
2015,10,20,12,02,11.80
2015,10,20,12,03,11.80
2015,10,20,12,04,11.80
2015,10,20,12,05,11.80
2015,10,20,12,06,11.80
2015,10,20,12,07,11.90
2015,10,20,12,08,11.90
2015,10,20,12,09,11.90
2015,10,20,12,10,11.90
2015,10,20,12,11,11.90
2015,10,20,12,12,11.90
2015,10,20,12,13,12.00
2015,10,20,12,14,12.00
2015,10,20,12,15,12.10
2015,10,20,12,16,12.10
2015,10,20,12,17,12.10
2015,10,20,12,18,12.10
2015,10,20,12,19,12.10
2015,10,20,12,20,12.20
2015,10,20,12,21,12.20
2015,10,20,12,22,12.20
2015,10,20,12,23,12.20
2015,10,20,12,24,12.20
2015,10,20,12,25,12.20
2015,10,20,12,26,12.30
2015,10,20,12,27,12.30
2015,10,20,12,28,12.30
2015,10,20,12,29,12.40
2015,10,20,12,30,12.40
2015,10,20,12,31,12.40
2015,10,20,12,32,12.40
2015,10,20,12,33,12.50
2015,10,20,12,34,12.50
2015,10,20,12,35,12.50
2015,10,20,12,36,12.50
2015,10,20,12,37,12.50
2015,10,20,12,38,12.60
2015,10,20,12,39,12.60
2015,10,20,12,40,12.60
2015,10,20,12,41,12.60
2015,10,20,12,42,12.60
2015,10,20,12,43,12.70
2015,10,20,12,44,12.80
2015,10,20,12,45,12.80
2015,10,20,12,46,12.90
2015,10,20,12,47,13.00
2015,10,20,12,48,13.00
2015,10,20,12,49,13.00
2015,10,20,12,50,13.10
2015,10,20,12,51,13.10
2015,10,20,12,52,13.10
2015,10,20,12,53,13.20
2015,10,20,12,54,13.20
2015,10,20,12,55,13.10
2015,10,20,12,56,13.10
2015,10,20,12,57,13.10
2015,10,20,12,58,13.10
2015,10,20,12,59,13.10
2015,10,20,13,00,13.00
2015,10,20,13,01,13.00
2015,10,20,13,02,13.00
2015,10,20,13,03,13.00
2015,10,20,13,04,13.00
2015,10,20,13,05,13.00
2015,10,20,13,06,13.00
2015,10,20,13,07,13.10
2015,10,20,13,08,13.10
2015,10,20,13,09,13.10
2015,10,20,13,10,13.10
2015,10,20,13,11,13.10
2015,10,20,13,12,13.00
2015,10,20,13,13,13.00
2015,10,20,13,14,13.00
2015,10,20,13,15,13.00
2015,10,20,13,16,13.00
2015,10,20,13,17,13.00
2015,10,20,13,18,13.00
2015,10,20,13,19,13.00
2015,10,20,13,20,13.10
2015,10,20,13,21,13.10
2015,10,20,13,22,13.10
2015,10,20,13,23,13.20
2015,10,20,13,24,13.20
2015,10,20,13,25,13.20
2015,10,20,13,26,13.20
2015,10,20,13,27,13.20
2015,10,20,13,28,13.30
2015,10,20,13,29,13.30
2015,10,20,13,30,13.30
2015,10,20,13,31,13.40
2015,10,20,13,32,13.40
2015,10,20,13,33,13.40
2015,10,20,13,34,13.50
2015,10,20,13,35,13.50
2015,10,20,13,36,13.60
2015,10,20,13,37,13.60
2015,10,20,13,38,13.60
2015,10,20,13,39,13.70
2015,10,20,13,40,13.70
2015,10,20,13,41,13.70
2015,10,20,13,42,13.80
2015,10,20,13,43,13.80
2015,10,20,13,44,13.80
2015,10,20,13,45,13.90
2015,10,20,13,46,13.90
2015,10,20,13,47,14.00
2015,10,20,13,48,14.10
2015,10,20,13,49,14.10
2015,10,20,13,50,14.20
2015,10,20,13,51,14.30
2015,10,20,13,52,14.30
2015,10,20,13,53,14.40
2015,10,20,13,54,14.40
2015,10,20,13,55,14.50
2015,10,20,13,56,14.50
2015,10,20,13,57,14.60
2015,10,20,13,58,14.70
2015,10,20,13,59,14.70
2015,10,20,14,00,14.80
2015,10,20,14,01,14.80
2015,10,20,14,02,14.80
2015,10,20,14,03,14.90
2015,10,20,14,04,15.00
2015,10,20,14,05,15.00
2015,10,20,14,06,15.10
2015,10,20,14,07,15.10
2015,10,20,14,08,15.10
2015,10,20,14,09,15.00
2015,10,20,14,10,15.00
2015,10,20,14,11,15.00
2015,10,20,14,12,15.00
2015,10,20,14,13,15.00
2015,10,20,14,14,15.00
2015,10,20,14,15,15.00
2015,10,20,14,16,15.00
2015,10,20,14,17,15.00
2015,10,20,14,18,15.10
2015,10,20,14,19,15.10
2015,10,20,14,20,15.10
2015,10,20,14,21,15.10
2015,10,20,14,22,15.10
2015,10,20,14,23,15.20
2015,10,20,14,24,15.30
2015,10,20,14,25,15.40
2015,10,20,14,26,15.40
2015,10,20,14,27,15.50
2015,10,20,14,28,15.50
2015,10,20,14,29,15.50
2015,10,20,14,30,15.50
2015,10,20,14,31,15.40
2015,10,20,14,32,15.40
2015,10,20,14,33,15.40
2015,10,20,14,34,15.30
2015,10,20,14,35,15.30
2015,10,20,14,36,15.30
2015,10,20,14,37,15.30
2015,10,20,14,38,15.30
2015,10,20,14,39,15.30
2015,10,20,14,40,15.20
2015,10,20,14,41,15.20
2015,10,20,14,42,15.10
2015,10,20,14,43,15.10
2015,10,20,14,44,15.00
2015,10,20,14,45,15.00
2015,10,20,14,46,15.00
2015,10,20,14,47,14.90
2015,10,20,14,48,14.90
2015,10,20,14,49,14.90
2015,10,20,14,50,14.90
2015,10,20,14,51,14.80
2015,10,20,14,52,14.80
2015,10,20,14,53,14.80
2015,10,20,14,54,14.80
2015,10,20,14,55,14.70
2015,10,20,14,56,14.70
2015,10,20,14,57,14.70
2015,10,20,14,58,14.70
2015,10,20,14,59,14.60
2015,10,20,15,00,14.60
2015,10,20,15,01,14.60
2015,10,20,15,02,14.50
2015,10,20,15,03,14.50
2015,10,20,15,04,14.50
2015,10,20,15,05,14.50
2015,10,20,15,06,14.40
2015,10,20,15,07,14.40
2015,10,20,15,08,14.40
2015,10,20,15,09,14.40
2015,10,20,15,10,14.40
2015,10,20,15,11,14.30
2015,10,20,15,12,14.30
2015,10,20,15,13,14.30
2015,10,20,15,14,14.30
2015,10,20,15,15,14.20
2015,10,20,15,16,14.20
2015,10,20,15,17,14.20
2015,10,20,15,18,14.20
2015,10,20,15,19,14.20
2015,10,20,15,20,14.20
2015,10,20,15,21,14.20
2015,10,20,15,22,14.20
2015,10,20,15,23,14.20
2015,10,20,15,24,14.20
2015,10,20,15,25,14.20
2015,10,20,15,26,14.20
2015,10,20,15,27,14.10
2015,10,20,15,28,14.10
2015,10,20,15,29,14.10
2015,10,20,15,30,14.00
2015,10,20,15,31,14.00
2015,10,20,15,32,13.90
2015,10,20,15,33,13.90
2015,10,20,15,34,13.90
2015,10,20,15,35,13.90
2015,10,20,15,36,13.80
2015,10,20,15,37,13.80
2015,10,20,15,38,13.80
2015,10,20,15,39,13.80
2015,10,20,15,40,13.80
2015,10,20,15,41,13.90
2015,10,20,15,42,13.90
2015,10,20,15,43,14.00
2015,10,20,15,44,14.00
2015,10,20,15,45,14.10
2015,10,20,15,46,14.20
2015,10,20,15,47,14.20
2015,10,20,15,48,14.30
2015,10,20,15,49,14.30
2015,10,20,15,50,14.30
2015,10,20,15,51,14.30
2015,10,20,15,52,14.40
2015,10,20,15,53,14.40
2015,10,20,15,54,14.50
2015,10,20,15,55,14.50
2015,10,20,15,56,14.60
2015,10,20,15,57,14.60
2015,10,20,15,58,14.70
2015,10,20,15,59,14.70
2015,10,20,16,00,14.70
2015,10,20,16,01,14.70
2015,10,20,16,02,14.70
2015,10,20,16,03,14.70
2015,10,20,16,04,14.70
2015,10,20,16,05,14.70
2015,10,20,16,06,14.70
2015,10,20,16,07,14.70
2015,10,20,16,08,14.70
2015,10,20,16,09,14.70
2015,10,20,16,10,14.70
2015,10,20,16,11,14.70
2015,10,20,16,12,14.70
2015,10,20,16,13,14.70
2015,10,20,16,14,14.70
2015,10,20,16,15,14.70
2015,10,20,16,16,14.70
2015,10,20,16,17,14.70
2015,10,20,16,18,14.70
2015,10,20,16,19,14.70
2015,10,20,16,20,14.60
2015,10,20,16,21,14.60
2015,10,20,16,22,14.60
2015,10,20,16,23,14.60
2015,10,20,16,24,14.60
2015,10,20,16,25,14.60
2015,10,20,16,26,14.60
2015,10,20,16,27,14.60
2015,10,20,16,28,14.60
2015,10,20,16,29,14.50
2015,10,20,16,30,14.50
2015,10,20,16,31,14.50
2015,10,20,16,32,14.50
2015,10,20,16,33,14.40
2015,10,20,16,34,14.40
2015,10,20,16,35,14.40
2015,10,20,16,36,14.40
2015,10,20,16,37,14.30
2015,10,20,16,38,14.30
2015,10,20,16,39,14.30
2015,10,20,16,40,14.40
2015,10,20,16,41,14.40
2015,10,20,16,42,14.40
2015,10,20,16,43,14.40
2015,10,20,16,44,14.40
2015,10,20,16,45,14.40
2015,10,20,16,46,14.40
2015,10,20,16,47,14.40
2015,10,20,16,48,14.50
2015,10,20,16,49,14.50
2015,10,20,16,50,14.50
2015,10,20,16,51,14.50
2015,10,20,16,52,14.50
2015,10,20,16,53,14.50
2015,10,20,16,54,14.50
2015,10,20,16,55,14.50
2015,10,20,16,56,14.50
2015,10,20,16,57,14.50
2015,10,20,16,58,14.50
2015,10,20,16,59,14.50
2015,10,20,17,00,14.50
2015,10,20,17,01,14.50
2015,10,20,17,02,14.50
2015,10,20,17,03,14.50
2015,10,20,17,04,14.50
2015,10,20,17,05,14.50
2015,10,20,17,06,14.50
2015,10,20,17,07,14.40
2015,10,20,17,08,14.40
2015,10,20,17,09,14.50
2015,10,20,17,10,14.50
2015,10,20,17,11,14.50
2015,10,20,17,12,14.50
2015,10,20,17,13,14.50
2015,10,20,17,14,14.50
2015,10,20,17,15,14.50
2015,10,20,17,16,14.50
2015,10,20,17,17,14.50
2015,10,20,17,18,14.40
2015,10,20,17,19,14.40
2015,10,20,17,20,14.40
2015,10,20,17,21,14.40
2015,10,20,17,22,14.40
2015,10,20,17,23,14.40
2015,10,20,17,24,14.30
2015,10,20,17,25,14.30
2015,10,20,17,26,14.30
2015,10,20,17,27,14.30
2015,10,20,17,28,14.30
2015,10,20,17,29,14.30
2015,10,20,17,30,14.30
2015,10,20,17,31,14.30
2015,10,20,17,32,14.20
2015,10,20,17,33,14.20
2015,10,20,17,34,14.20
2015,10,20,17,35,14.20
2015,10,20,17,36,14.10
2015,10,20,17,37,14.10
2015,10,20,17,38,14.10
2015,10,20,17,39,14.10
2015,10,20,17,40,14.10
2015,10,20,17,41,14.00
2015,10,20,17,42,14.00
2015,10,20,17,43,13.90
2015,10,20,17,44,13.90
2015,10,20,17,45,13.90
2015,10,20,17,46,13.90
2015,10,20,17,47,13.80
2015,10,20,17,48,13.80
2015,10,20,17,49,13.80
2015,10,20,17,50,13.80
2015,10,20,17,51,13.70
2015,10,20,17,52,13.70
2015,10,20,17,53,13.70
2015,10,20,17,54,13.70
2015,10,20,17,55,13.60
2015,10,20,17,56,13.60
2015,10,20,17,57,13.60
2015,10,20,17,58,13.60
2015,10,20,17,59,13.60
2015,10,20,18,00,13.50
2015,10,20,18,01,13.50
2015,10,20,18,02,13.50
2015,10,20,18,03,13.50
2015,10,20,18,04,13.50
2015,10,20,18,05,13.50
2015,10,20,18,06,13.50
2015,10,20,18,07,13.50
2015,10,20,18,08,13.50
2015,10,20,18,09,13.50
2015,10,20,18,10,13.40
2015,10,20,18,11,13.40
2015,10,20,18,12,13.40
2015,10,20,18,13,13.40
2015,10,20,18,14,13.40
2015,10,20,18,15,13.40
2015,10,20,18,16,13.40
2015,10,20,18,17,13.40
2015,10,20,18,18,13.30
2015,10,20,18,19,13.30
2015,10,20,18,20,13.30
2015,10,20,18,21,13.20
2015,10,20,18,22,13.20
2015,10,20,18,23,13.20
2015,10,20,18,24,13.20
2015,10,20,18,25,13.10
2015,10,20,18,26,13.10
2015,10,20,18,27,13.00
2015,10,20,18,28,13.00
2015,10,20,18,29,12.90
2015,10,20,18,30,12.90
2015,10,20,18,31,12.80
2015,10,20,18,32,12.80
2015,10,20,18,33,12.80
2015,10,20,18,34,12.70
2015,10,20,18,35,12.70
2015,10,20,18,36,12.70
2015,10,20,18,37,12.60
2015,10,20,18,38,12.60
2015,10,20,18,39,12.50
2015,10,20,18,40,12.40
2015,10,20,18,41,12.40
2015,10,20,18,42,12.40
2015,10,20,18,43,12.30
2015,10,20,18,44,12.30
2015,10,20,18,45,12.30
2015,10,20,18,46,12.20
2015,10,20,18,47,12.20
2015,10,20,18,48,12.10
2015,10,20,18,49,12.10
2015,10,20,18,50,12.00
2015,10,20,18,51,12.00
2015,10,20,18,52,11.90
2015,10,20,18,53,11.90
2015,10,20,18,54,11.80
2015,10,20,18,55,11.80
2015,10,20,18,56,11.80
2015,10,20,18,57,11.70
2015,10,20,18,58,11.70
2015,10,20,18,59,11.70
2015,10,20,19,00,11.70
2015,10,20,19,01,11.60
2015,10,20,19,02,11.60
2015,10,20,19,03,11.60
2015,10,20,19,04,11.60
2015,10,20,19,05,11.50
2015,10,20,19,06,11.50
2015,10,20,19,07,11.50
2015,10,20,19,08,11.40
2015,10,20,19,09,11.40
2015,10,20,19,10,11.40
2015,10,20,19,11,11.30
2015,10,20,19,12,11.30
2015,10,20,19,13,11.30
2015,10,20,19,14,11.30
2015,10,20,19,15,11.30
2015,10,20,19,16,11.20
2015,10,20,19,17,11.20
2015,10,20,19,18,11.20
2015,10,20,19,19,11.20
2015,10,20,19,20,11.20
2015,10,20,19,21,11.10
2015,10,20,19,22,11.10
2015,10,20,19,23,11.10
2015,10,20,19,24,11.00
2015,10,20,19,25,11.00
2015,10,20,19,26,10.90
2015,10,20,19,27,10.90
2015,10,20,19,28,10.90
2015,10,20,19,29,10.80
2015,10,20,19,30,10.80
2015,10,20,19,31,10.80
2015,10,20,19,32,10.80
2015,10,20,19,33,10.70
2015,10,20,19,34,10.70
2015,10,20,19,35,10.60
2015,10,20,19,36,10.60
2015,10,20,19,37,10.60
2015,10,20,19,38,10.60
2015,10,20,19,39,10.50
2015,10,20,19,40,10.50
2015,10,20,19,41,10.50
2015,10,20,19,42,10.40
2015,10,20,19,43,10.40
2015,10,20,19,44,10.40
2015,10,20,19,45,10.40
2015,10,20,19,46,10.40
2015,10,20,19,47,10.40
2015,10,20,19,48,10.40
2015,10,20,19,49,10.30
2015,10,20,19,50,10.30
2015,10,20,19,51,10.30
2015,10,20,19,52,10.30
2015,10,20,19,53,10.30
2015,10,20,19,54,10.30
2015,10,20,19,55,10.30
2015,10,20,19,56,10.30
2015,10,20,19,57,10.30
2015,10,20,19,58,10.20
2015,10,20,19,59,10.20
2015,10,20,20,00,10.20
2015,10,20,20,01,10.20
2015,10,20,20,02,10.20
2015,10,20,20,03,10.10
2015,10,20,20,04,10.10
2015,10,20,20,05,10.10
2015,10,20,20,06,10.10
2015,10,20,20,07,10.00
2015,10,20,20,08,10.00
2015,10,20,20,09,10.00
2015,10,20,20,10,9.90
2015,10,20,20,11,9.90
2015,10,20,20,12,9.90
2015,10,20,20,13,9.90
2015,10,20,20,14,9.90
2015,10,20,20,15,9.80
2015,10,20,20,16,9.80
2015,10,20,20,17,9.80
2015,10,20,20,18,9.80
2015,10,20,20,19,9.80
2015,10,20,20,20,9.80
2015,10,20,20,21,9.80
2015,10,20,20,22,9.80
2015,10,20,20,23,9.80
2015,10,20,20,24,9.70
2015,10,20,20,25,9.70
2015,10,20,20,26,9.70
2015,10,20,20,27,9.70
2015,10,20,20,28,9.70
2015,10,20,20,29,9.70
2015,10,20,20,30,9.70
2015,10,20,20,31,9.60
2015,10,20,20,32,9.60
2015,10,20,20,33,9.60
2015,10,20,20,34,9.60
2015,10,20,20,35,9.60
2015,10,20,20,36,9.60
2015,10,20,20,37,9.50
2015,10,20,20,38,9.50
2015,10,20,20,39,9.50
2015,10,20,20,40,9.40
2015,10,20,20,41,9.40
2015,10,20,20,42,9.40
2015,10,20,20,43,9.40
2015,10,20,20,44,9.40
2015,10,20,20,45,9.30
2015,10,20,20,46,9.30
2015,10,20,20,47,9.30
2015,10,20,20,48,9.30
2015,10,20,20,49,9.30
2015,10,20,20,50,9.30
2015,10,20,20,51,9.30
2015,10,20,20,52,9.30
2015,10,20,20,53,9.30
2015,10,20,20,54,9.30
2015,10,20,20,55,9.20
2015,10,20,20,56,9.20
2015,10,20,20,57,9.20
2015,10,20,20,58,9.20
2015,10,20,20,59,9.20
2015,10,20,21,00,9.20
2015,10,20,21,01,9.10
2015,10,20,21,02,9.10
2015,10,20,21,03,9.10
2015,10,20,21,04,9.10
2015,10,20,21,05,9.00
2015,10,20,21,06,9.00
2015,10,20,21,07,9.00
2015,10,20,21,08,8.90
2015,10,20,21,09,8.90
2015,10,20,21,10,8.90
2015,10,20,21,11,8.90
2015,10,20,21,12,8.90
2015,10,20,21,13,8.90
2015,10,20,21,14,8.80
2015,10,20,21,15,8.80
2015,10,20,21,16,8.80
2015,10,20,21,17,8.80
2015,10,20,21,18,8.80
2015,10,20,21,19,8.80
2015,10,20,21,20,8.80
2015,10,20,21,21,8.80
2015,10,20,21,22,8.80
2015,10,20,21,23,8.80
2015,10,20,21,24,8.70
2015,10,20,21,25,8.70
2015,10,20,21,26,8.70
2015,10,20,21,27,8.70
2015,10,20,21,28,8.70
2015,10,20,21,29,8.70
2015,10,20,21,30,8.70
2015,10,20,21,31,8.70
2015,10,20,21,32,8.70
2015,10,20,21,33,8.70
2015,10,20,21,34,8.70
2015,10,20,21,35,8.60
2015,10,20,21,36,8.60
2015,10,20,21,37,8.60
2015,10,20,21,38,8.60
2015,10,20,21,39,8.60
2015,10,20,21,40,8.60
2015,10,20,21,41,8.60
2015,10,20,21,42,8.60
2015,10,20,21,43,8.60
2015,10,20,21,44,8.60
2015,10,20,21,45,8.60
2015,10,20,21,46,8.50
2015,10,20,21,47,8.50
2015,10,20,21,48,8.50
2015,10,20,21,49,8.50
2015,10,20,21,50,8.50
2015,10,20,21,51,8.40
2015,10,20,21,52,8.40
2015,10,20,21,53,8.40
2015,10,20,21,54,8.40
2015,10,20,21,55,8.40
2015,10,20,21,56,8.40
2015,10,20,21,57,8.40
2015,10,20,21,58,8.40
2015,10,20,21,59,8.40
2015,10,20,22,00,8.40
2015,10,20,22,01,8.40
2015,10,20,22,02,8.40
2015,10,20,22,03,8.30
2015,10,20,22,04,8.40
2015,10,20,22,05,8.30
2015,10,20,22,06,8.30
2015,10,20,22,07,8.30
2015,10,20,22,08,8.30
2015,10,20,22,09,8.30
2015,10,20,22,10,8.20
2015,10,20,22,11,8.20
2015,10,20,22,12,8.20
2015,10,20,22,13,8.20
2015,10,20,22,14,8.20
2015,10,20,22,15,8.20
2015,10,20,22,16,8.20
2015,10,20,22,17,8.20
2015,10,20,22,18,8.10
2015,10,20,22,19,8.10
2015,10,20,22,20,8.10
2015,10,20,22,21,8.10
2015,10,20,22,22,8.10
2015,10,20,22,23,8.10
2015,10,20,22,24,8.10
2015,10,20,22,25,8.10
2015,10,20,22,26,8.10
2015,10,20,22,27,8.10
2015,10,20,22,28,8.10
2015,10,20,22,29,8.10
2015,10,20,22,30,8.10
2015,10,20,22,31,8.10
2015,10,20,22,32,8.10
2015,10,20,22,33,8.10
2015,10,20,22,34,8.10
2015,10,20,22,35,8.10
2015,10,20,22,36,8.00
2015,10,20,22,37,8.00
2015,10,20,22,38,8.00
2015,10,20,22,39,7.90
2015,10,20,22,40,7.90
2015,10,20,22,41,7.90
2015,10,20,22,42,7.80
2015,10,20,22,43,7.80
2015,10,20,22,44,7.80
2015,10,20,22,45,7.80
2015,10,20,22,46,7.80
2015,10,20,22,47,7.80
2015,10,20,22,48,7.80
2015,10,20,22,49,7.80
2015,10,20,22,50,7.80
2015,10,20,22,51,7.80
2015,10,20,22,52,7.80
2015,10,20,22,53,7.80
2015,10,20,22,54,7.80
2015,10,20,22,55,7.80
2015,10,20,22,56,7.80
2015,10,20,22,57,7.80
2015,10,20,22,58,7.80
2015,10,20,22,59,7.80
2015,10,20,23,00,7.80
2015,10,20,23,01,7.80
2015,10,20,23,02,7.80
2015,10,20,23,03,7.80
2015,10,20,23,04,7.80
2015,10,20,23,05,7.80
2015,10,20,23,06,7.80
2015,10,20,23,07,7.80
2015,10,20,23,08,7.80
2015,10,20,23,09,7.80
2015,10,20,23,10,7.80
2015,10,20,23,11,7.80
2015,10,20,23,12,7.80
2015,10,20,23,13,7.80
2015,10,20,23,14,7.80
2015,10,20,23,15,7.80
2015,10,20,23,16,7.70
2015,10,20,23,17,7.70
2015,10,20,23,18,7.70
2015,10,20,23,19,7.70
2015,10,20,23,20,7.70
2015,10,20,23,21,7.70
2015,10,20,23,22,7.70
2015,10,20,23,23,7.70
2015,10,20,23,24,7.70
2015,10,20,23,25,7.70
2015,10,20,23,26,7.60
2015,10,20,23,27,7.60
2015,10,20,23,28,7.60
2015,10,20,23,29,7.60
2015,10,20,23,30,7.60
2015,10,20,23,31,7.60
2015,10,20,23,32,7.60
2015,10,20,23,33,7.60
2015,10,20,23,34,7.60
2015,10,20,23,35,7.60
2015,10,20,23,36,7.60
2015,10,20,23,37,7.60
2015,10,20,23,38,7.50
2015,10,20,23,39,7.50
2015,10,20,23,40,7.50
2015,10,20,23,41,7.50
2015,10,20,23,42,7.50
2015,10,20,23,43,7.50
2015,10,20,23,44,7.50
2015,10,20,23,45,7.50
2015,10,20,23,46,7.50
2015,10,20,23,47,7.50
2015,10,20,23,48,7.50
2015,10,20,23,49,7.50
2015,10,20,23,50,7.50
2015,10,20,23,51,7.40
2015,10,20,23,52,7.40
2015,10,20,23,53,7.40
2015,10,20,23,54,7.40
2015,10,20,23,55,7.40
2015,10,20,23,56,7.40
2015,10,20,23,57,7.40
2015,10,20,23,58,7.40
2015,10,20,23,59,7.30
